This demonstration page uses our WeatherBlox Daily Observations layout. Learn more.

Left ArrowRight Arrow

39.08367, -84.50855

Hourly Observations for November 20, 2022

Temp ( °F °C ) Dew Point ( °F °C ) Humidity (%) Winds ( mph kmh ) Pressure ( in mb ) Visibility ( mi km ) Precip ( " mm )
12:53 am 00:53 Clear 26 -3.3 7 -13.9 44 44 W 16 26 30.34 1028 10 16 0.00 0.00
1:53 am 01:53 Clear 25 -3.9 8 -13.3 48 48 W 10 17 30.35 1028 10 16 0.00 0.00
2:53 am 02:53 Clear 25 -3.9 8 -13.3 48 48 W 13 20 30.37 1028 10 16 0.00 0.00
3:53 am 03:53 Clear 24 -4.4 8 -13.3 50 50 W 10 17 30.38 1029 10 16 0.00 0.00
4:53 am 04:53 Clear 24 -4.4 6 -14.4 45 45 W 12 19 30.41 1030 10 16 0.00 0.00
5:53 am 05:53 Clear 22 -5.6 6 -14.4 50 50 W 14 22 30.42 1030 10 16 0.00 0.00
6:53 am 06:53 Clear 21 -6.1 6 -14.4 52 52 W 10 17 30.44 1031 10 16 0.00 0.00
7:53 am 07:53 Sunny 20 -6.7 6 -14.4 54 54 W 9 15 30.47 1032 10 16 0.00 0.00
8:53 am 08:53 Sunny 23 -5 6 -14.4 48 48 W 9 15 30.51 1033 10 16 0.00 0.00
9:53 am 09:53 Sunny 25 -3.9 5 -15 42 42 NW 8 13 30.52 1034 10 16 0.00 0.00
10:53 am 10:53 Sunny 27 -2.8 4 -15.6 36 36 WNW 7 11 30.53 1034 10 16 0.00 0.00
11:53 am 11:53 Sunny 30 -1.1 4 -15.6 32 32 W 6 9 30.51 1033 10 16 0.00 0.00
12:53 pm 12:53 Sunny 32 0 2 -16.7 27 27 SW 9 15 30.49 1033 10 16 0.00 0.00
1:53 pm 13:53 Sunny 33 0.6 1 -17.2 25 25 W 9 15 30.47 1032 10 16 0.00 0.00
2:53 pm 14:53 Sunny 34 1.1 0 -17.8 23 23 VRB 6 9 30.46 1031 10 16 0.00 0.00
3:53 pm 15:53 Sunny 35 1.7 0 -17.8 22 22 W 7 11 30.44 1031 10 16 0.00 0.00
4:53 pm 16:53 Sunny 32 0 2 -16.7 27 27 SSW 6 9 30.43 1031 10 16 0.00 0.00
5:53 pm 17:53 Clear 28 -2.2 5 -15 37 37 S 3 6 30.44 1031 10 16 0.00 0.00
6:53 pm 18:53 Clear 26 -3.3 10 -12.2 50 50 Calm 30.44 1031 10 16 0.00 0.00
7:53 pm 19:53 Clear 25 -3.9 12 -11.1 57 57 Calm 30.44 1031 10 16 0.00 0.00
8:53 pm 20:53 Clear 23 -5 12 -11.1 62 62 NNE 3 6 30.44 1031 10 16 0.00 0.00
9:53 pm 21:53 Clear 19 -7.2 12 -11.1 74 74 Calm 30.44 1031 10 16 0.00 0.00
10:53 pm 22:53 Clear 21 -6.1 13 -10.6 70 70 Calm 30.44 1031 10 16 0.00 0.00
11:53 pm 23:53 Clear 19 -7.2 13 -10.6 77 77 Calm 30.43 1031 9 14 0.00 0.00

Powered by AerisWeather